GSAT-14

Last updated on Wed Sep 23 2026 00:03:32 GMT+0000 (Coordinated Universal Time)

1 39498U 14001A 26265.59130714 -.00000080 00000+0 00000+0 0 9997 2 39498 0.0142 181.6821 0005522 39.6166 67.0505 1.00272503 46355
UTC large
Height (km)
Speed (km/s)
/
Latitude / Longitude
Inclination (degrees)
Orbital Period (minutes)
Azimuth
Elevation
Range (km)
Doppler Factor

Next 0 passes for location: London (51.5072 / 0.1276)

No passes found over London.
GSAT-14